Glover Park, Texas, United States
Lat: 32.76N, Lon: 96.71W
Wx Zone: TXZ119
Local Info
Past Weather Observations for Today

NOTE: This archive is for the closest National Weather Service station to Glover Park. Information may differ from the station used for current weather conditions.

Click here for Long-term Archive

Time Weather Temperature Dewpoint Humidity Pressure Winds Precip Visibility
13:50
Overcast
52°F / 11°C 43°F / 6°C 72% 29.95 in
(1014 mb)
SSE 11.5 mph
(SSE 19 kph)
- 10SM
12:50
Overcast
50°F / 10°C 45°F / 7°C 82% 30.01 in
(1016 mb)
SSE 10.4 mph
(SSE 17 kph)
- 10SM
11:50
Overcast
48°F / 9°C 45°F / 7°C 87% 30.06 in
(1018 mb)
SSE 11.5 mph
(SSE 19 kph)
- 10SM
10:50
Overcast
46°F / 8°C 45°F / 7°C 93% 30.09 in
(1019 mb)
SSE 6.9 mph
(SSE 11 kph)
- 7SM
09:50
Overcast
46°F / 8°C 45°F / 7°C 93% 30.12 in
(1020 mb)
SSE 8.1 mph
(SSE 13 kph)
- 7SM
08:47
Overcast
Fog And Mist
46°F / 8°C 45°F / 7°C 93% 30.12 in
(1020 mb)
SE 4.6 mph
(SE 7 kph)
- 5SM
07:47
Overcast
Fog And Mist
46°F / 8°C 45°F / 7°C 93% 30.12 in
(1020 mb)
ESE 5.8 mph
(ESE 9 kph)
- 5SM
06:50
Overcast
46°F / 8°C 43°F / 6°C 87% 30.12 in
(1020 mb)
SE 5.8 mph
(SE 9 kph)
- 10SM
04:35
Overcast
46°F / 8°C 45°F / 7°C 93% 30.12 in
(1020 mb)
SE 4.6 mph
(SE 7 kph)
- 7SM
04:15
Overcast
46°F / 8°C 45°F / 7°C 93% 30.12 in
(1020 mb)
SE 3.5 mph
(SE 6 kph)
- 7SM
03:55
Overcast
46°F / 8°C 45°F / 7°C 93% 30.15 in
(1021 mb)
SE 3.5 mph
(SE 6 kph)
- 7SM
03:35
Overcast
46°F / 8°C 45°F / 7°C 93% 30.15 in
(1021 mb)
Calm - 7SM
03:15
Overcast
46°F / 8°C 45°F / 7°C 93% 30.15 in
(1021 mb)
SE 4.6 mph
(SE 7 kph)
- 5SM
02:55
Overcast
46°F / 8°C 45°F / 7°C 93% 30.15 in
(1021 mb)
Calm - 7SM
02:35
Overcast
48°F / 9°C 45°F / 7°C 87% 30.15 in
(1021 mb)
Calm - 7SM
02:15
Overcast
48°F / 9°C 45°F / 7°C 87% 30.15 in
(1021 mb)
SE 3.5 mph
(SE 6 kph)
- 7SM
01:55
Overcast
48°F / 9°C 45°F / 7°C 87% 30.15 in
(1021 mb)
SE 4.6 mph
(SE 7 kph)
- 7SM
01:35
Overcast
46°F / 8°C 45°F / 7°C 93% 30.18 in
(1022 mb)
SE 3.5 mph
(SE 6 kph)
- 5SM
01:15
Overcast
46°F / 8°C 45°F / 7°C 93% 30.18 in
(1022 mb)
Calm - 5SM
00:55
Overcast
46°F / 8°C 45°F / 7°C 93% 30.18 in
(1022 mb)
Calm - 5SM
00:35
Overcast
46°F / 8°C 45°F / 7°C 93% 30.18 in
(1022 mb)
Calm - 5SM
00:15
Overcast
46°F / 8°C 45°F / 7°C 93% 30.18 in
(1022 mb)
Calm - 5SM
Time Weather Temperature Dewpoint Humidity Pressure Winds Precip Visibility


Weather for websites

WeatherForYou.com, LLC is not responsible for any damages or problems caused by this service. Current weather conditions are obtained from the closest station including government and personal stations which may have varying degrees of accuracy. Weather forecasts are derived from the NOAA NDFD. Like all things, this site belongs to Jesus Christ... He just trusts me to maintain it. If you have any questions or comments email webmaster@weatherforyou.com

Copyright © 2014, WeatherForYou.com LLC. All rights reserved.